TimeEDT,TemperatureF,Dew PointF,Humidity,Sea Level PressureIn,VisibilityMPH,Wind Direction,Wind SpeedMPH,Gust SpeedMPH,PrecipitationIn,Events,Conditions,WindDirDegrees,DateUTC
12:53 AM,57.0,39.9,53,29.78,10.0,South,15.0,21.9,0.01,,Overcast,180,2013-03-11 04:53:00
1:53 AM,55.9,39.9,55,29.75,10.0,South,13.8,20.7,0.00,,Partly Cloudy,170,2013-03-11 05:53:00
2:53 AM,57.0,42.1,57,29.74,10.0,South,20.7,33.4,0.01,,Overcast,190,2013-03-11 06:53:00
3:53 AM,54.0,44.1,69,29.73,10.0,South,15.0,27.6,N/A,,Overcast,190,2013-03-11 07:53:00
4:53 AM,54.0,45.0,72,29.71,10.0,South,16.1,28.8,N/A,,Overcast,190,2013-03-11 08:53:00
5:53 AM,53.1,45.0,74,29.71,10.0,South,15.0,21.9,0.00,Rain,Light Rain,190,2013-03-11 09:53:00
6:32 AM,51.8,46.4,82,29.71,5.0,South,13.8,23.0,0.00,Rain,Light Rain,190,2013-03-11 10:32:00
6:45 AM,51.8,48.2,88,29.70,5.0,South,15.0,23.0,0.01,Rain,Light Rain,190,2013-03-11 10:45:00
6:53 AM,51.1,48.0,89,29.70,5.0,South,10.4,18.4,0.01,Rain,Light Rain,180,2013-03-11 10:53:00
7:53 AM,51.1,48.0,89,29.69,7.0,South,11.5,-,0.00,Rain,Light Rain,190,2013-03-11 11:53:00
8:30 AM,53.6,46.4,77,29.69,10.0,South,15.0,26.5,0.00,,Overcast,180,2013-03-11 12:30:00
8:53 AM,53.1,46.9,80,29.70,10.0,South,20.7,28.8,0.00,,Overcast,190,2013-03-11 12:53:00
9:53 AM,52.0,48.0,86,29.69,8.0,South,17.3,32.2,0.01,Rain,Light Rain,170,2013-03-11 13:53:00
10:12 AM,51.8,48.2,88,29.69,8.0,South,13.8,23.0,0.00,Rain,Light Rain,170,2013-03-11 14:12:00
10:51 AM,51.8,48.2,88,29.67,8.0,South,17.3,24.2,0.00,,Overcast,170,2013-03-11 14:51:00
10:53 AM,52.0,48.0,86,29.67,7.0,SSE,18.4,27.6,0.00,,Overcast,160,2013-03-11 14:53:00
11:09 AM,51.8,48.2,88,29.66,3.0,South,16.1,24.2,0.00,Rain,Light Rain,170,2013-03-11 15:09:00
11:38 AM,51.8,48.2,88,29.63,10.0,South,12.7,-,0.00,,Overcast,170,2013-03-11 15:38:00
11:53 AM,53.1,48.9,86,29.62,10.0,SSE,10.4,19.6,0.00,Rain,Light Rain,160,2013-03-11 15:53:00
12:53 PM,53.1,46.0,77,29.59,6.0,SSE,12.7,24.2,0.01,Rain,Light Rain,160,2013-03-11 16:53:00
1:53 PM,52.0,48.0,86,29.54,5.0,SSE,12.7,20.7,0.04,Rain,Light Rain,160,2013-03-11 17:53:00
2:15 PM,51.8,48.2,88,29.53,5.0,South,18.4,26.5,0.04,Rain,Rain,170,2013-03-11 18:15:00
2:23 PM,51.8,48.2,88,29.55,2.5,SW,16.1,25.3,0.10,Rain,Rain,230,2013-03-11 18:23:00
2:27 PM,51.8,48.2,88,29.55,1.2,SSW,17.3,25.3,0.17,Rain,Heavy Rain,210,2013-03-11 18:27:00
2:29 PM,51.8,48.2,88,29.55,1.2,SSW,16.1,25.3,0.18,Rain,Heavy Rain,210,2013-03-11 18:29:00
2:36 PM,51.8,48.2,88,29.54,2.5,SSW,16.1,23.0,0.20,Rain,Rain,210,2013-03-11 18:36:00
2:43 PM,51.8,48.2,88,29.54,4.0,SSW,10.4,21.9,0.21,Rain,Light Rain,210,2013-03-11 18:43:00
2:53 PM,51.1,48.0,89,29.53,4.0,WSW,11.5,19.6,0.23,Rain,Light Rain,240,2013-03-11 18:53:00
3:09 PM,51.8,48.2,88,29.54,5.0,SW,11.5,-,0.02,Rain,Light Rain,230,2013-03-11 19:09:00
3:19 PM,50.0,46.4,87,29.54,4.0,SW,13.8,23.0,0.05,Rain,Rain,230,2013-03-11 19:19:00
3:21 PM,50.0,46.4,87,29.54,5.0,SW,12.7,23.0,0.05,Rain,Light Rain,230,2013-03-11 19:21:00
3:30 PM,48.2,46.4,93,29.55,4.0,WSW,16.1,29.9,0.06,Rain,Light Rain,250,2013-03-11 19:30:00
3:42 PM,48.2,46.4,93,29.54,7.0,WSW,9.2,19.6,0.07,Rain,Light Rain,250,2013-03-11 19:42:00
3:53 PM,48.0,44.1,86,29.56,10.0,WSW,11.5,23.0,0.08,Rain,Light Rain,250,2013-03-11 19:53:00
4:34 PM,48.2,42.8,82,29.57,10.0,WSW,11.5,23.0,0.00,,Overcast,250,2013-03-11 20:34:00
4:53 PM,46.9,39.9,77,29.58,10.0,WSW,13.8,26.5,0.00,,Mostly Cloudy,250,2013-03-11 20:53:00
5:00 PM,46.4,39.2,76,29.58,10.0,WSW,12.7,26.5,N/A,,Overcast,250,2013-03-11 21:00:00
5:53 PM,46.0,37.0,71,29.61,10.0,SW,13.8,23.0,N/A,,Overcast,230,2013-03-11 21:53:00
6:53 PM,44.1,35.1,71,29.64,10.0,SW,13.8,26.5,N/A,,Overcast,230,2013-03-11 22:53:00
7:10 PM,42.8,33.8,70,29.65,10.0,WSW,12.7,31.1,N/A,,Overcast,240,2013-03-11 23:10:00
7:53 PM,39.9,35.1,83,29.68,10.0,SW,10.4,20.7,N/A,,Overcast,230,2013-03-11 23:53:00
8:53 PM,39.0,33.1,79,29.71,10.0,SW,15.0,25.3,N/A,,Overcast,230,2013-03-12 00:53:00
9:53 PM,37.9,30.9,76,29.75,10.0,SW,13.8,23.0,N/A,,Overcast,230,2013-03-12 01:53:00
10:53 PM,37.0,30.9,79,29.77,10.0,SW,16.1,23.0,N/A,,Overcast,220,2013-03-12 02:53:00
11:53 PM,37.0,30.9,79,29.78,10.0,SW,10.4,20.7,N/A,,Overcast,230,2013-03-12 03:53:00